Regional Weather Roundup
Issued by NWS

Home | Current Version | Previous Version | Graphics & Text | Print | Product List | Glossary On
Versions: 1 2 3 4 5 6 7 8 9 10 11 12 13 14 15 16 17 18 19 20 21 22 23 24 25 26 27 28 29 30 31 32 33 34 35 36 37 38 39 40 41 42 43 44 45 46 47 48 49 50
000
ASUS43 KMKX 022121
RWRWI

WISCONSIN REGIONAL WEATHER ROUNDUP
NATIONAL WEATHER SERVICE MILWAUKEE/SULLIVAN WI
400 PM CDT THU JUL 02 2015

NOTE: "FAIR" INDICATES FEW OR NO CLOUDS BELOW 12,000 FEET WITH NO
SIGNIFICANT WEATHER AND/OR OBSTRUCTIONS TO VISIBILITY.

WIZ001-002-006>008-014>016-023>028-022200-
NORTHWEST WISCONSIN

CITY           SKY/WX    TMP DP  RH WIND       PRES   REMARKS
SUPERIOR ARPT  SUNNY     78  60  53 SW8       29.96F
ASHLAND        SUNNY     77  59  53 SW8       29.98F
HAYWARD        SUNNY     75  50  41 S6        30.01F
SIREN          SUNNY     77  47  35 S6        30.01S
CUMBERLAND     SUNNY     72  48  43 SW8       30.02S
RICE LAKE      SUNNY     74  51  42 S8        30.03S
CHETEK         SUNNY     75  53  45 S3        30.02S
LADYSMITH      SUNNY     75  54  47 S6        30.03F
EAU CLAIRE     SUNNY     76  51  41 SE8       30.00F
MENOMONIE      SUNNY     76  52  43 SE8       30.01S
NEW RICHMOND   MOSUNNY   75  55  49 E5        30.01F
OSCEOLA        SUNNY     76  50  40 SE6       30.03S
$$

WIZ003>005-009-010-017-018-022200-
NORTH CENTRAL WISCONSIN

CITY           SKY/WX    TMP DP  RH WIND       PRES   REMARKS
MANITOWISH WTR PTSUNNY   73  53  49 S5        30.01F
ARBOR VITAE    MOSUNNY   73  53  48 SW7       30.02F
WOODRUFF       MOSUNNY   73  53  48 SW7       30.02F
RHINELANDER    SUNNY     76  49  38 W5        30.03F
EAGLE RIVER    MOSUNNY   73  48  40 CALM      30.01F
LAND O LAKES   MOSUNNY   75  47  37 SW3       30.03S
PHILLIPS       MOSUNNY   74  53  46 W3        30.01F
TOMAHAWK       SUNNY     74  52  45 S3        30.03F
MEDFORD        SUNNY     72  54  51 SE6       30.03S
MERRILL        SUNNY     74  52  44 S7        30.02F
$$

WIZ029-030-035-036-043>047-022200-
CENTRAL WISCONSIN

CITY           SKY/WX    TMP DP  RH WIND       PRES   REMARKS
WAUSAU         SUNNY     76  47  35 S10       30.01F
MOSINEE        SUNNY     72  48  43 VRB6      30.04S
MARSHFIELD     SUNNY     74  49  41 E9        30.03S
STEVENS POINT  SUNNY     71  48  44 SE9       30.03S
WAUPACA        SUNNY     77  46  33 E6        30.02F
WAUTOMA        SUNNY     73  46  38 E8        30.03F
WISC RAPIDS    SUNNY     74  45  35 VRB6      30.03F
CAMP DOUGLAS   SUNNY     73  52  48 E8        30.01F
$$

WIZ011>013-019>022-031-037>040-048>050-022200-
NORTHEAST WISCONSIN

CITY           SKY/WX    TMP DP  RH WIND       PRES   REMARKS
ANTIGO         SUNNY     71  51  48 S3        30.03F
SHAWANO        SUNNY     75  47  36 E6        30.03F
OCONTO         SUNNY     71  49  44 NE6       30.03F
STURGEON BAY   SUNNY     68  45  42 NE8       30.06S
GREEN BAY      SUNNY     73  48  41 E8        30.03F
MANITOWOC      SUNNY     67  47  48 MISG      30.04F
APPLETON       SUNNY     72  39  30 E7        30.03F
CLINTONVILLE   SUNNY     73  46  38 CALM      30.02S
OSHKOSH        SUNNY     72  48  42 NE7       30.02F
$$

WIZ032>034-041-042-053>061-022200-
SOUTHWEST WISCONSIN

CITY           SKY/WX    TMP DP  RH WIND       PRES   REMARKS
LA CROSSE      SUNNY     75  54  47 S6        30.00F
SPARTA         SUNNY     76  47  35 E7        30.02S
VIROQUA        SUNNY     73  50  45 E8        30.02F
BOSCOBEL       SUNNY     74  51  44 VRB6      30.00F
PRAIRIE DU CHI SUNNY     72  47  41 SE7       30.01R
PLATTEVILLE    MOSUNNY   71  46  40 NE8       30.00F
$$

WIZ056-057-062-063-064-067-068-022200-
SOUTH CENTRAL WISCONSIN

CITY           SKY/WX    TMP DP  RH WIND       PRES   REMARKS
REEDSBURG      SUNNY     71  51  48 N7        30.01S
BARABOO/DELLS  SUNNY     71  49  44 CALM      30.02S
LONE ROCK      SUNNY     72  49  44 E8        30.02R
MINERAL POINT  SUNNY     72  46  40 E8        30.01F
MADISON        MOSUNNY   72  50  45 NE6       30.01S
MIDDLETON      SUNNY     72  46  38 E3        30.02S
WATERTOWN      SUNNY     71  48  45 NE8       30.00F
MONROE         SUNNY     68  50  52 E7        30.00S
JANESVILLE     SUNNY     73  48  40 E10       29.99F
$$

WIZ051-052-058>065-066-070>072-022200-
SOUTHEAST WISCONSIN

CITY           SKY/WX    TMP DP  RH WIND       PRES   REMARKS
MILWAUKEE      MOSUNNY   63  49  60 NE13      30.03S
WAUKESHA       SUNNY     66  46  48 NE10      30.03S
MILWAUKEE/TIMM SUNNY     64  46  52 NE8G16    30.03F
RACINE         SUNNY     64  49  57 NE12      30.04F
BURLINGTON     SUNNY     67  47  49 E8        30.00F
KENOSHA        SUNNY     67  54  63 NE13      30.01F
FOND DU LAC    SUNNY     73  45  36 SE10      30.02F
SHEBOYGAN      SUNNY     67  48  50 NE9       30.04S
WEST BEND      SUNNY     68  45  42 E9        30.03S
JUNEAU         SUNNY     71  49  45 NE8       30.02F
$$

LSZ147-162-022200-
LAKE SUPERIOR

STATION/POSITION TIME  TEMP    WIND        PRES    WAVE
                       AIR SEA DIR/SP/G            HT/PER
                 (UTC) (F)     (DEG/KT/KT) (MB)    (FT/S)
W MID LAKE BUOY  2050   51 39  200/ 10/ 10 1014.7F   1
DEVILS ISLAND    2100   69     230/ 10/ 14 1014.2F
SAXON HARBOR     1900   76     240/  2/ 10 1015.6
$$

LMZ867-665-643>646-022200-
LAKE MICHIGAN

STATION/POSITION TIME  TEMP    WIND        PRES    WAVE
                       AIR SEA DIR/SP/G            HT/PER
                 (UTC) (F)     (DEG/KT/KT) (MB)    (FT/S)
CHAMBERS ISLAND  2000   70     340/  3/  4 1017.6F
N MID LAKE BUOY  2050   58 55   CALM  /  2 1017.5F   0
NORTHPORT PIER   2000   60     130/  7/  8 1017.6F
SISTER BAY       2014   75     340/  4/  6   N/A
ALGOMA LAKESHORE 2040           90/  7/  8   N/A
KEWAUNEE LAKESHO 2000   62      40/  3/  7 1017.1F
SHEBOYGAN LAKESH 2100   57      20/  7/  7 1017.6F
PORT WASHINGTON  2000   60      50/  9/ 10 1017.9F
ATWATER BUOY     2100   57      20/ 10/ 12 1018.0F
MILWAUKEE LAKESH 2100   58      30/ 10/ 11   N/A
KENOSHA   LAKESH 2100   57      30/ 15/ 16 1016.3S
$$

TC  - TEMPERATURE IN CELSIUS
VSB - VISIBILITY IN STATUTE MILES
WCI - WIND CHILL INDEX
HX  - HEAT INDEX




USA.gov is the U.S. government's official web portal to all federal, state and local government web resources and services.